TimeAKST,TemperatureF,Dew PointF,Humidity,Sea Level PressureIn,VisibilityMPH,Wind Direction,Wind SpeedMPH,Gust SpeedMPH,PrecipitationIn,Events,Conditions,WindDirDegrees,DateUTC
12:16 AM,35.6,30.2,81,29.97,10.0,ESE,5.8,-,N/A,,Overcast,110,2011-12-14 09:16:00
12:36 AM,33.8,30.2,87,29.97,10.0,Calm,Calm,-,N/A,,Overcast,0,2011-12-14 09:36:00
12:56 AM,33.8,30.2,87,29.97,10.0,Calm,Calm,-,N/A,,Overcast,0,2011-12-14 09:56:00
1:16 AM,33.8,30.2,87,29.98,10.0,Calm,Calm,-,N/A,,Overcast,0,2011-12-14 10:16:00
1:36 AM,33.8,30.2,87,29.98,10.0,Calm,Calm,-,N/A,,Overcast,0,2011-12-14 10:36:00
1:56 AM,35.6,30.2,81,29.97,10.0,SE,5.8,-,N/A,,Overcast,130,2011-12-14 10:56:00
2:16 AM,35.6,30.2,81,29.97,10.0,ESE,8.1,-,N/A,,Overcast,120,2011-12-14 11:16:00
2:36 AM,35.6,30.2,81,29.97,10.0,East,3.5,-,N/A,,Overcast,80,2011-12-14 11:36:00
2:56 AM,35.6,30.2,81,29.97,10.0,Calm,Calm,-,N/A,,Overcast,0,2011-12-14 11:56:00
3:16 AM,35.6,30.2,81,29.97,10.0,SE,6.9,-,N/A,,Overcast,130,2011-12-14 12:16:00
3:36 AM,35.6,30.2,81,29.97,10.0,SE,9.2,-,N/A,,Overcast,130,2011-12-14 12:36:00
3:56 AM,35.6,30.2,81,29.97,10.0,SE,9.2,-,N/A,,Overcast,140,2011-12-14 12:56:00
4:16 AM,35.6,30.2,81,29.97,10.0,SSE,10.4,-,N/A,,Overcast,150,2011-12-14 13:16:00
4:36 AM,35.6,30.2,81,29.97,10.0,SE,9.2,-,N/A,,Overcast,140,2011-12-14 13:36:00
4:56 AM,37.4,30.2,75,29.97,10.0,SSE,10.4,-,N/A,,Overcast,150,2011-12-14 13:56:00
5:16 AM,37.4,30.2,75,29.96,10.0,SE,11.5,-,N/A,,Overcast,140,2011-12-14 14:16:00
5:36 AM,35.6,30.2,81,29.96,10.0,SE,12.7,-,N/A,,Overcast,140,2011-12-14 14:36:00
5:56 AM,37.4,30.2,75,29.97,10.0,SE,10.4,-,N/A,,Overcast,140,2011-12-14 14:56:00
6:16 AM,35.6,30.2,81,29.97,10.0,SE,9.2,-,N/A,,Overcast,140,2011-12-14 15:16:00
6:36 AM,37.4,30.2,75,29.97,10.0,SE,10.4,-,N/A,,Overcast,140,2011-12-14 15:36:00
6:56 AM,37.4,30.2,75,29.97,10.0,SE,11.5,-,N/A,,Overcast,140,2011-12-14 15:56:00
7:16 AM,37.4,30.2,75,29.97,10.0,SE,12.7,-,N/A,,Overcast,140,2011-12-14 16:16:00
7:36 AM,37.4,30.2,75,29.97,10.0,SE,16.1,-,N/A,,Overcast,130,2011-12-14 16:36:00
7:56 AM,35.6,30.2,81,29.97,10.0,ESE,12.7,18.4,N/A,,Overcast,120,2011-12-14 16:56:00
8:16 AM,35.6,30.2,81,29.98,10.0,ESE,11.5,-,N/A,,Overcast,120,2011-12-14 17:16:00
8:36 AM,35.6,30.2,81,29.98,10.0,ESE,11.5,-,N/A,,Mostly Cloudy,120,2011-12-14 17:36:00
8:56 AM,35.6,30.2,81,29.97,10.0,SE,13.8,-,N/A,,Overcast,130,2011-12-14 17:56:00
9:16 AM,35.6,30.2,81,29.98,10.0,ESE,9.2,-,N/A,,Overcast,120,2011-12-14 18:16:00
9:36 AM,37.4,30.2,75,29.98,10.0,SSE,8.1,-,N/A,,Overcast,150,2011-12-14 18:36:00
9:56 AM,35.6,30.2,81,29.98,10.0,SE,8.1,-,N/A,,Mostly Cloudy,140,2011-12-14 18:56:00
10:16 AM,37.4,30.2,75,29.98,10.0,SE,9.2,-,N/A,,Mostly Cloudy,140,2011-12-14 19:16:00
10:36 AM,37.4,30.2,75,29.98,10.0,SE,9.2,-,N/A,,Overcast,140,2011-12-14 19:36:00
11:16 AM,37.4,30.2,75,29.97,10.0,SE,10.4,-,N/A,,Mostly Cloudy,130,2011-12-14 20:16:00
11:36 AM,37.4,30.2,75,29.98,10.0,SSE,5.8,-,N/A,,Scattered Clouds,160,2011-12-14 20:36:00
11:56 AM,37.4,30.2,75,29.98,10.0,SSE,8.1,-,N/A,,Mostly Cloudy,150,2011-12-14 20:56:00
12:16 PM,37.4,28.4,70,29.98,10.0,SSE,9.2,-,N/A,,Overcast,150,2011-12-14 21:16:00
12:36 PM,37.4,28.4,70,29.98,10.0,SE,9.2,-,N/A,,Overcast,140,2011-12-14 21:36:00
12:56 PM,37.4,30.2,75,29.98,10.0,SE,8.1,-,N/A,,Overcast,140,2011-12-14 21:56:00
1:16 PM,37.4,28.4,70,29.99,10.0,SE,9.2,-,N/A,,Overcast,140,2011-12-14 22:16:00
1:36 PM,37.4,28.4,70,29.99,10.0,SSE,8.1,-,N/A,,Overcast,150,2011-12-14 22:36:00
1:56 PM,37.4,28.4,70,29.99,10.0,SSE,8.1,-,N/A,,Overcast,150,2011-12-14 22:56:00
2:16 PM,37.4,30.2,75,29.99,10.0,SSE,5.8,-,N/A,,Overcast,160,2011-12-14 23:16:00
2:36 PM,37.4,30.2,75,29.99,10.0,South,6.9,-,N/A,,Overcast,170,2011-12-14 23:36:00
2:56 PM,37.4,28.4,70,29.99,10.0,SE,6.9,-,N/A,,Overcast,140,2011-12-14 23:56:00
3:16 PM,35.6,30.2,81,29.99,10.0,SSE,8.1,-,N/A,,Overcast,160,2011-12-15 00:16:00
3:36 PM,37.4,28.4,70,29.99,10.0,SSE,5.8,-,N/A,,Overcast,150,2011-12-15 00:36:00
3:56 PM,37.4,28.4,70,29.99,10.0,South,5.8,-,N/A,,Overcast,190,2011-12-15 00:56:00
4:16 PM,37.4,28.4,70,29.99,10.0,SE,3.5,-,N/A,,Overcast,130,2011-12-15 01:16:00
4:36 PM,37.4,30.2,75,29.99,10.0,South,5.8,-,N/A,,Overcast,180,2011-12-15 01:36:00
4:56 PM,37.4,28.4,70,29.99,10.0,SSE,6.9,-,N/A,,Overcast,160,2011-12-15 01:56:00
5:16 PM,37.4,28.4,70,29.99,10.0,SSE,6.9,-,N/A,,Overcast,160,2011-12-15 02:16:00
5:36 PM,37.4,28.4,70,29.99,10.0,SSE,8.1,-,N/A,,Overcast,150,2011-12-15 02:36:00
5:56 PM,37.4,28.4,70,29.99,10.0,SSE,4.6,-,N/A,,Overcast,150,2011-12-15 02:56:00
6:16 PM,35.6,28.4,75,30.00,10.0,Calm,Calm,-,N/A,,Overcast,0,2011-12-15 03:16:00
6:36 PM,33.8,30.2,87,30.00,10.0,Calm,Calm,-,N/A,,Overcast,0,2011-12-15 03:36:00
6:56 PM,35.6,28.4,75,30.00,10.0,Calm,Calm,-,N/A,,Overcast,0,2011-12-15 03:56:00
7:16 PM,33.8,28.4,81,30.00,10.0,Calm,Calm,-,N/A,,Mostly Cloudy,0,2011-12-15 04:16:00
7:36 PM,33.8,30.2,87,30.00,10.0,Calm,Calm,-,N/A,,Mostly Cloudy,0,2011-12-15 04:36:00
7:56 PM,35.6,28.4,75,30.00,10.0,ESE,3.5,-,N/A,,Overcast,120,2011-12-15 04:56:00
8:16 PM,35.6,30.2,81,30.00,10.0,ESE,5.8,-,N/A,,Overcast,110,2011-12-15 05:16:00
8:36 PM,35.6,28.4,75,30.00,10.0,ESE,8.1,-,N/A,,Overcast,120,2011-12-15 05:36:00
8:56 PM,35.6,30.2,81,30.00,10.0,ESE,8.1,-,N/A,,Overcast,120,2011-12-15 05:56:00
9:16 PM,35.6,30.2,81,30.00,10.0,SE,8.1,-,N/A,,Overcast,130,2011-12-15 06:16:00
9:36 PM,35.6,28.4,75,30.00,10.0,ESE,5.8,-,N/A,,Overcast,110,2011-12-15 06:36:00
9:56 PM,35.6,28.4,75,29.99,10.0,ESE,3.5,-,N/A,,Overcast,120,2011-12-15 06:56:00
10:16 PM,35.6,28.4,75,29.99,10.0,SE,4.6,-,N/A,,Overcast,130,2011-12-15 07:16:00
10:36 PM,35.6,28.4,75,29.99,10.0,South,4.6,-,N/A,,Scattered Clouds,170,2011-12-15 07:36:00
10:56 PM,35.6,28.4,75,30.00,10.0,South,5.8,-,N/A,,Mostly Cloudy,170,2011-12-15 07:56:00
11:16 PM,35.6,28.4,75,30.00,10.0,South,3.5,-,N/A,,Overcast,170,2011-12-15 08:16:00
11:36 PM,37.4,28.4,70,30.01,10.0,SSE,5.8,-,N/A,,Overcast,160,2011-12-15 08:36:00
11:56 PM,37.4,28.4,70,30.00,10.0,SE,10.4,-,N/A,,Overcast,140,2011-12-15 08:56:00